Total_Precipitation_Accumulation
0.92 0.89 0.81 0.78 0.72 0.68 0.62 0.58 0.50 0.42 0.37 0.33 0.29 0.26 0.23 0.20 0.17 0.15 0.15 0.15 0.15 0.16 0.17 0.17 0.18 0.18 0.18 0.16 0.16 0.15 0.14 0.17 0.21 0.22 0.20 0.19 0.20 0.21 0.20 0.19 0.18 0.19 0.18
0.52 0.48 0.46 0.46 0.45 0.44 0.42 0.39 0.36 0.35 0.32 0.29 0.27 0.24 0.22 0.21 0.21 0.20 0.20 0.19 0.19 0.19 0.19 0.18 0.18 0.17 0.18 0.17 0.17 0.16 0.16 0.18 0.20 0.20 0.18 0.15 0.16 0.16 0.16 0.17 0.15 0.13 0.15
0.33 0.33 0.33 0.34 0.35 0.36 0.37 0.37 0.35 0.34 0.32 0.29 0.27 0.27 0.26 0.25 0.23 0.22 0.21 0.20 0.18 0.16 0.15 0.14 0.13 0.12 0.12 0.11 0.10 0.09 0.09 0.09 0.13 0.16 0.15 0.13 0.12 0.13 0.17 0.18 0.17 0.21 0.15
0.25 0.25 0.25 0.26 0.28 0.30 0.30 0.30 0.30 0.30 0.32 0.32 0.31 0.29 0.26 0.23 0.19 0.16 0.13 0.11 0.09 0.08 0.07 0.06 0.05 0.05 0.07 0.08 0.08 0.08 0.09 0.11 0.13 0.17 0.17 0.15 0.14 0.13 0.22 0.23 0.19 0.20 0.17
0.30 0.30 0.29 0.28 0.28 0.29 0.30 0.32 0.31 0.30 0.27 0.24 0.20 0.16 0.13 0.10 0.07 0.05 0.04 0.03 0.03 0.02 0.02 0.02 0.02 0.03 0.05 0.06 0.06 0.08 0.13 0.17 0.18 0.21 0.19 0.16 0.14 0.19 0.24 0.24 0.21 0.17 0.13
0.42 0.43 0.43 0.41 0.40 0.38 0.34 0.30 0.26 0.21 0.16 0.12 0.09 0.07 0.05 0.03 0.02 0.01 0.01 0.01 0.01 0.02 0.02 0.02 0.02 0.02 0.02 0.02 0.05 0.10 0.16 0.19 0.20 0.22 0.21 0.22 0.21 0.25 0.27 0.25 0.25 0.26 0.22
0.52 0.51 0.51 0.46 0.41 0.32 0.23 0.16 0.13 0.10 0.08 0.06 0.05 0.03 0.03 0.01 0.00 0.00 0.00 0.00 0.02 0.03 0.04 0.04 0.03 0.02 0.03 0.05 0.06 0.07 0.09 0.09 0.15 0.23 0.28 0.28 0.30 0.32 0.35 0.32 0.34 0.35 0.31
0.54 0.50 0.44 0.36 0.28 0.19 0.13 0.10 0.08 0.07 0.06 0.05 0.03 0.03 0.04 0.02 0.00 0.00 0.00 0.01 0.03 0.04 0.04 0.04 0.05 0.06 0.06 0.06 0.04 0.05 0.09 0.13 0.14 0.16 0.25 0.27 0.27 0.28 0.32 0.33 0.35 0.36 0.33
0.47 0.36 0.26 0.18 0.13 0.09 0.07 0.07 0.07 0.06 0.05 0.04 0.03 0.05 0.07 0.05 0.01 0.00 0.00 0.01 0.03 0.03 0.04 0.03 0.04 0.07 0.07 0.07 0.06 0.10 0.16 0.20 0.12 0.10 0.16 0.22 0.25 0.28 0.29 0.33 0.44 0.53 0.46
0.24 0.15 0.11 0.08 0.06 0.05 0.05 0.05 0.05 0.05 0.05 0.04 0.04 0.05 0.07 0.08 0.02 0.00 0.00 0.01 0.02 0.03 0.05 0.08 0.06 0.06 0.05 0.05 0.05 0.12 0.21 0.23 0.21 0.25 0.33 0.37 0.40 0.47 0.45 0.44 0.54 0.59 0.54
0.10 0.07 0.06 0.04 0.03 0.03 0.03 0.04 0.04 0.05 0.06 0.06 0.07 0.07 0.08 0.04 0.01 0.00 0.00 0.00 0.01 0.02 0.08 0.15 0.16 0.08 0.05 0.05 0.07 0.12 0.19 0.17 0.23 0.38 0.45 0.46 0.47 0.52 0.51 0.46 0.50 0.56 0.61
0.05 0.05 0.04 0.03 0.01 0.02 0.04 0.05 0.05 0.06 0.09 0.09 0.10 0.10 0.09 0.07 0.03 0.01 0.00 0.00 0.00 0.04 0.13 0.18 0.17 0.09 0.07 0.10 0.11 0.15 0.17 0.23 0.37 0.48 0.50 0.49 0.46 0.46 0.46 0.42 0.45 0.51 0.57
0.07 0.06 0.04 0.03 0.03 0.03 0.04 0.06 0.07 0.08 0.08 0.06 0.08 0.09 0.09 0.09 0.06 0.00 0.00 0.00 0.01 0.04 0.11 0.11 0.12 0.13 0.15 0.25 0.24 0.21 0.27 0.41 0.49 0.52 0.53 0.50 0.43 0.38 0.35 0.34 0.37 0.47 0.54
0.13 0.09 0.06 0.06 0.06 0.06 0.06 0.05 0.06 0.08 0.06 0.06 0.08 0.08 0.09 0.09 0.05 0.02 0.02 0.04 0.05 0.08 0.10 0.14 0.22 0.28 0.31 0.38 0.42 0.47 0.49 0.49 0.45 0.49 0.49 0.42 0.32 0.29 0.30 0.31 0.35 0.40 0.48
0.15 0.10 0.06 0.05 0.06 0.08 0.09 0.06 0.04 0.05 0.01 0.02 0.04 0.04 0.05 0.05 0.03 0.02 0.02 0.02 0.03 0.05 0.07 0.18 0.33 0.40 0.46 0.49 0.52 0.56 0.58 0.52 0.46 0.44 0.44 0.40 0.33 0.31 0.28 0.26 0.30 0.34 0.40
0.14 0.09 0.05 0.04 0.05 0.06 0.09 0.10 0.04 0.01 0.00 0.00 0.00 0.01 0.02 0.02 0.02 0.02 0.02 0.02 0.04 0.07 0.13 0.27 0.34 0.38 0.42 0.43 0.43 0.46 0.51 0.50 0.44 0.39 0.39 0.36 0.32 0.30 0.30 0.29 0.29 0.33 0.39
0.09 0.06 0.03 0.03 0.04 0.06 0.08 0.14 0.16 0.07 0.01 0.01 0.01 0.01 0.02 0.02 0.02 0.02 0.03 0.05 0.08 0.15 0.24 0.33 0.35 0.37 0.40 0.38 0.36 0.41 0.45 0.42 0.35 0.33 0.32 0.29 0.27 0.25 0.26 0.28 0.27 0.27 0.28
0.04 0.02 0.02 0.03 0.04 0.05 0.05 0.07 0.11 0.15 0.14 0.09 0.04 0.02 0.02 0.03 0.04 0.05 0.08 0.13 0.21 0.26 0.31 0.31 0.32 0.34 0.37 0.37 0.33 0.32 0.32 0.27 0.24 0.24 0.25 0.22 0.21 0.22 0.23 0.24 0.21 0.18 0.21
0.02 0.03 0.03 0.02 0.01 0.02 0.03 0.03 0.03 0.06 0.12 0.15 0.12 0.06 0.05 0.09 0.11 0.13 0.16 0.21 0.26 0.27 0.26 0.26 0.28 0.28 0.29 0.32 0.28 0.24 0.21 0.18 0.16 0.16 0.17 0.18 0.18 0.18 0.18 0.17 0.14 0.10 0.13
0.02 0.02 0.02 0.01 0.01 0.01 0.01 0.01 0.01 0.03 0.07 0.10 0.10 0.06 0.07 0.15 0.23 0.23 0.21 0.20 0.20 0.20 0.22 0.24 0.22 0.19 0.21 0.21 0.17 0.16 0.16 0.14 0.12 0.11 0.12 0.12 0.12 0.13 0.12 0.10 0.10 0.09 0.10
0.01 0.01 0.00 0.00 0.00 0.00 0.01 0.01 0.01 0.02 0.04 0.05 0.05 0.04 0.09 0.16 0.24 0.24 0.22 0.19 0.16 0.18 0.21 0.20 0.18 0.16 0.15 0.14 0.12 0.10 0.09 0.09 0.09 0.11 0.10 0.08 0.07 0.07 0.06 0.04 0.04 0.04 0.04
0.00 0.00 0.00 0.00 0.00 0.00 0.00 0.01 0.01 0.01 0.02 0.04 0.04 0.05 0.09 0.16 0.21 0.25 0.25 0.20 0.16 0.16 0.17 0.16 0.14 0.13 0.11 0.11 0.10 0.08 0.06 0.06 0.07 0.11 0.10 0.07 0.05 0.04 0.02 0.02 0.02 0.02 0.02
0.00 0.00 0.00 0.00 0.00 0.00 0.00 0.00 0.00 0.01 0.02 0.02 0.04 0.05 0.08 0.15 0.20 0.23 0.21 0.17 0.12 0.11 0.12 0.12 0.11 0.09 0.07 0.06 0.05 0.04 0.03 0.03 0.05 0.08 0.09 0.05 0.03 0.03 0.02 0.02 0.02 0.02 0.01
0.00 0.00 0.00 0.00 0.00 0.00 0.00 0.00 0.00 0.00 0.01 0.02 0.03 0.04 0.05 0.11 0.15 0.16 0.17 0.14 0.10 0.09 0.08 0.07 0.07 0.05 0.04 0.03 0.02 0.01 0.01 0.01 0.02 0.03 0.05 0.04 0.03 0.02 0.02 0.02 0.02 0.02 0.02
0.00 0.00 0.00 0.00 0.00 0.00 0.00 0.00 0.00 0.00 0.01 0.01 0.02 0.03 0.03 0.04 0.06 0.07 0.09 0.10 0.10 0.08 0.06 0.04 0.03 0.02 0.01 0.01 0.01 0.00 0.00 0.01 0.00 0.01 0.02 0.02 0.01 0.01 0.01 0.01 0.01 0.02 0.03
0.00 0.00 0.00 0.00 0.00 0.00 0.00 0.00 0.01 0.01 0.01 0.01 0.02 0.03 0.02 0.02 0.02 0.03 0.04 0.06 0.07 0.06 0.06 0.04 0.02 0.01 0.00 0.00 0.00 0.01 0.01 0.01 0.01 0.01 0.01 0.02 0.01 0.01 0.01 0.01 0.01 0.02 0.02